Location: Recife
(8.0585°S, 34.8848°W)
Time: 04:49:39
(UTC-03:00)

Courier 1B - Pass Details

Date: 18 April 2026
Orbit: 962 x 1209 km, 28.3° (Epoch: 14 May)

Event Time Altitude Azimuth Distance (km) Brightness Sun altitude
Rises 06:26:44 0° 265° (W) 4,015 10.1 14.9°
Reaches altitude 10° 06:30:02 10° 253° (WSW) 3,087 9.6 15.7°
Maximum altitude 06:36:20 27° 198° (SSW) 2,129 9.1 17.2°
Drops below altitude 10° 06:42:45 10° 143° (SE) 3,149 10.5 18.7°
Sets 06:46:11 0° 131° (SE) 4,111 11.2 19.6°
